User: anonymous   Login
Location: Arroyo de Fuente Vieja
(40.4902°N, 4.1175°W)
Time: 18:15:10
(UTC+00:00)
Language:

Terra - Orbit

View from above orbital plane
View from above orbital plane
View from above satellite
View from above satellite

Ground track
Ground track

The orbit data is extracted from the following two-line orbital elements,

1 25994U 99068A   24173.47417920  .00000609  00000-0  13689-3 0  9997
2 25994  98.0479 236.8360 0002130  31.4160  25.7690 14.59820659303797
Epoch (UTC): 21 June 2024 11:22:49
Eccentricity: 0.0002130
inclination: 98.0479°
perigee height: 692 km
apogee height: 695 km
right ascension of ascending node: 236.8360°
argument of perigee: 31.4160°
revolutions per day: 14.59820659
mean anomaly at epoch: 25.7690°
orbit number at epoch: 30379

The dashed part of the orbit path shows where the satellite is in the earth's shadow,  

DLR